| time (UTC) | temp F | wind direction | speed MPH | gust MPH | rain 1hr in | rain 24hr in | rain mn in | humidity % | barometer mb |
| 20260902120032 | 61 | 297 | 0.0 | 1.0 | 0.00 | 0.00 | 0.00 | 93 | 1026.1 |
| 20260902114530 | 61 | 292 | 0.0 | 0.0 | 0.00 | 0.00 | 0.00 | 94 | 1026.2 |
| 20260902113028 | 61 | 292 | 0.0 | 1.0 | 0.00 | 0.00 | 0.00 | 95 | 1026.0 |
| 20260902111528 | 60 | 293 | 0.0 | 1.0 | 0.00 | 0.00 | 0.00 | 95 | 1026.0 |
| 20260902110037 | 60 | 148 | 0.0 | 0.0 | 0.00 | 0.00 | 0.00 | 95 | 1025.8 |
| 20260902104541 | 60 | 148 | 0.0 | 0.0 | 0.00 | 0.00 | 0.00 | 95 | 1025.6 |
| 20260902103041 | 60 | 156 | 0.0 | 0.0 | 0.00 | 0.00 | 0.00 | 95 | 1025.5 |
| 20260902101522 | 60 | 156 | 0.0 | 1.0 | 0.00 | 0.00 | 0.00 | 95 | 1025.6 |
| 20260902100022 | 60 | 139 | 0.0 | 1.0 | 0.00 | 0.00 | 0.00 | 95 | 1025.4 |
| 20260902094521 | 60 | 127 | 0.0 | 1.0 | 0.00 | 0.00 | 0.00 | 95 | 1025.4 |
| 20260902093021 | 60 | 6 | 0.0 | 1.0 | 0.00 | 0.00 | 0.00 | 95 | 1025.3 |
| 20260902091519 | 60 | 244 | 0.0 | 1.0 | 0.00 | 0.00 | 0.00 | 95 | 1025.3 |
| 20260902090026 | 60 | 244 | 0.0 | 1.0 | 0.00 | 0.00 | 0.00 | 95 | 1025.3 |
| 20260902084521 | 60 | 244 | 0.0 | 1.0 | 0.00 | 0.00 | 0.00 | 95 | 1025.3 |
| 20260902083015 | 60 | 244 | 0.0 | 0.0 | 0.00 | 0.00 | 0.00 | 95 | 1025.3 |
| 20260902081515 | 60 | 244 | 0.0 | 0.0 | 0.00 | 0.00 | 0.00 | 95 | 1025.2 |
| 20260902080019 | 60 | 244 | 0.0 | 1.0 | 0.00 | 0.00 | 0.00 | 95 | 1025.1 |
| 20260902074512 | 60 | 244 | 0.0 | 0.0 | 0.00 | 0.00 | 0.00 | 95 | 1024.9 |
| 20260902073011 | 60 | 244 | 0.0 | 1.0 | 0.00 | 0.00 | 0.00 | 95 | 1024.8 |
| 20260902071510 | 60 | 244 | 0.0 | 1.0 | 0.00 | 0.00 | 0.00 | 95 | 1024.8 |
| 20260902070009 | 60 | 244 | 0.0 | 1.0 | 0.00 | 0.00 | 0.00 | 95 | 1024.6 |
| 20260902064510 | 61 | 155 | 0.0 | 1.0 | 0.00 | 0.00 | 0.00 | 95 | 1024.6 |
| 20260902063023 | 61 | 141 | 0.0 | 1.0 | 0.00 | 0.00 | 0.00 | 95 | 1024.7 |
| 20260902061506 | 61 | 141 | 0.0 | 1.0 | 0.00 | 0.00 | 0.00 | 95 | 1024.6 |
| 20260902060005 | 61 | 140 | 0.0 | 1.0 | 0.00 | 0.00 | 0.00 | 95 | 1024.6 |
| 20260902054504 | 61 | 140 | 0.0 | 1.0 | 0.00 | 0.00 | 0.00 | 95 | 1024.4 |
| 20260902053005 | 61 | 139 | 0.0 | 0.0 | 0.00 | 0.00 | 0.00 | 95 | 1024.2 |
| 20260902051614 | 61 | 140 | 0.0 | 1.0 | 0.00 | 0.00 | 0.00 | 95 | 1023.8 |
| 20260902050059 | 61 | 184 | 0.0 | 0.0 | 0.00 | 0.00 | 0.00 | 95 | 1023.8 |
| 20260902044619 | 62 | 189 | 0.0 | 0.0 | 0.00 | 0.00 | 0.00 | 95 | 1023.5 |
| 20260902043056 | 62 | 143 | 0.0 | 1.0 | 0.00 | 0.00 | 0.00 | 95 | 1023.6 |
| 20260902041556 | 62 | 143 | 0.0 | 1.0 | 0.00 | 0.00 | 0.00 | 95 | 1023.6 |
| 20260902040054 | 62 | 144 | 0.0 | 0.0 | 0.00 | 0.00 | 0.00 | 94 | 1023.6 |
| 20260902034553 | 63 | 144 | 0.0 | 1.0 | 0.00 | 0.00 | 0.00 | 93 | 1023.4 |
| 20260902033052 | 63 | 144 | 0.0 | 1.0 | 0.00 | 0.00 | 0.00 | 93 | 1023.4 |
| 20260902031558 | 63 | 144 | 0.0 | 2.0 | 0.00 | 0.00 | 0.00 | 93 | 1023.2 |
| 20260902030056 | 63 | 108 | 0.0 | 1.0 | 0.00 | 0.00 | 0.00 | 93 | 1022.9 |
| 20260902024557 | 63 | 349 | 0.0 | 1.0 | 0.00 | 0.00 | 0.00 | 93 | 1022.8 |
| 20260902023049 | 63 | 349 | 0.0 | 2.0 | 0.00 | 0.00 | 0.00 | 93 | 1022.9 |
| 20260902021551 | 63 | 127 | 0.0 | 1.0 | 0.00 | 0.00 | 0.00 | 93 | 1023.0 |
| 20260902020048 | 63 | 127 | 0.0 | 1.0 | 0.00 | 0.00 | 0.00 | 93 | 1023.1 |
| 20260902014541 | 63 | 127 | 0.0 | 1.0 | 0.00 | 0.00 | 0.00 | 92 | 1023.0 |
| 20260902013043 | 63 | 127 | 0.0 | 0.0 | 0.00 | 0.00 | 0.00 | 92 | 1023.1 |
| 20260902011539 | 63 | 127 | 0.0 | 1.0 | 0.00 | 0.00 | 0.00 | 92 | 1023.1 |
| 20260902010043 | 63 | 127 | 0.0 | 0.0 | 0.00 | 0.00 | 0.00 | 92 | 1023.0 |
| 20260902004538 | 63 | 127 | 0.0 | 1.0 | 0.00 | 0.00 | 0.00 | 93 | 1022.9 |
| 20260902003036 | 63 | 127 | 0.0 | 1.0 | 0.00 | 0.00 | 0.00 | 92 | 1022.6 |
| 20260902001535 | 64 | 127 | 0.0 | 1.0 | 0.00 | 0.00 | 0.00 | 92 | 1022.6 |
| 20260902000033 | 64 | 141 | 0.0 | 1.0 | 0.00 | 0.00 | 0.00 | 91 | 1022.3 |
| 20260901234532 | 65 | 142 | 0.0 | 1.0 | 0.00 | 0.00 | 0.00 | 89 | 1022.2 |
| 20260901233031 | 65 | 142 | 0.0 | 1.0 | 0.00 | 0.00 | 0.00 | 88 | 1022.1 |
| 20260901231535 | 66 | 134 | 0.0 | 1.0 | 0.00 | 0.00 | 0.00 | 86 | 1022.2 |
| 20260901230030 | 67 | 137 | 0.0 | 3.0 | 0.00 | 0.00 | 0.00 | 85 | 1022.1 |
| 20260901224529 | 67 | 108 | 0.0 | 4.0 | 0.00 | 0.00 | 0.00 | 83 | 1021.9 |
| 20260901223028 | 68 | 138 | 0.0 | 3.0 | 0.00 | 0.00 | 0.00 | 81 | 1021.9 |
| 20260901221526 | 69 | 152 | 0.0 | 3.0 | 0.00 | 0.00 | 0.00 | 80 | 1021.8 |
| 20260901220026 | 69 | 139 | 1.0 | 5.0 | 0.00 | 0.00 | 0.00 | 79 | 1021.7 |
| 20260901214525 | 69 | 193 | 0.0 | 4.0 | 0.00 | 0.00 | 0.00 | 79 | 1021.6 |
| 20260901213029 | 69 | 176 | 0.0 | 3.0 | 0.00 | 0.00 | 0.00 | 79 | 1021.4 |
| 20260901211526 | 69 | 158 | 1.0 | 6.0 | 0.00 | 0.00 | 0.00 | 78 | 1021.3 |
| 20260901210023 | 70 | 217 | 0.0 | 5.0 | 0.00 | 0.00 | 0.00 | 76 | 1021.3 |
| 20260901204523 | 71 | 143 | 1.0 | 10.0 | 0.00 | 0.00 | 0.00 | 76 | 1021.1 |
| 20260901203022 | 71 | 356 | 1.0 | 5.0 | 0.00 | 0.00 | 0.00 | 73 | 1020.9 |
| 20260901201521 | 72 | 143 | 1.0 | 5.0 | 0.00 | 0.00 | 0.00 | 73 | 1020.9 |
| 20260901200020 | 72 | 122 | 0.0 | 4.0 | 0.00 | 0.00 | 0.00 | 72 | 1020.7 |
| 20260901194518 | 74 | 106 | 0.0 | 6.0 | 0.00 | 0.00 | 0.00 | 67 | 1020.8 |
| 20260901193018 | 75 | 153 | 2.0 | 7.0 | 0.00 | 0.00 | 0.00 | 64 | 1020.9 |
| 20260901191518 | 76 | 157 | 3.0 | 8.0 | 0.00 | 0.00 | 0.00 | 62 | 1021.0 |
| 20260901190023 | 75 | 104 | 0.0 | 1.0 | 0.00 | 0.00 | 0.00 | 56 | 1021.0 |
| 20260901184514 | 75 | 139 | 0.0 | 1.0 | 0.00 | 0.00 | 0.00 | 55 | 1021.0 |
| 20260901183022 | 77 | 146 | 0.0 | 3.0 | 0.00 | 0.00 | 0.00 | 54 | 1021.0 |
| 20260901181513 | 77 | 82 | 0.0 | 2.0 | 0.00 | 0.00 | 0.00 | 51 | 1020.8 |
| 20260901180015 | 77 | 4 | 0.0 | 3.0 | 0.00 | 0.00 | 0.00 | 51 | 1020.6 |
| 20260901174506 | 76 | 286 | 0.0 | 3.0 | 0.00 | 0.00 | 0.00 | 51 | 1020.6 |
| 20260901173004 | 76 | 124 | 0.0 | 1.0 | 0.00 | 0.00 | 0.00 | 54 | 1020.7 |
| 20260901171505 | 75 | 147 | 0.0 | 2.0 | 0.00 | 0.00 | 0.00 | 55 | 1020.9 |
| 20260901170002 | 75 | 260 | 0.0 | 2.0 | 0.00 | 0.00 | 0.00 | 53 | 1020.9 |
| 20260901164502 | 75 | 152 | 0.0 | 2.0 | 0.00 | 0.00 | 0.00 | 55 | 1020.9 |
| 20260901163116 | 74 | 82 | 0.0 | 4.0 | 0.00 | 0.00 | 0.00 | 59 | 1021.0 |
| 20260901161605 | 73 | 168 | 0.0 | 2.0 | 0.00 | 0.00 | 0.00 | 59 | 1021.2 |
| 20260901160055 | 72 | 101 | 0.0 | 4.0 | 0.00 | 0.00 | 0.00 | 63 | 1021.6 |
| 20260901154550 | 72 | 138 | 0.0 | 1.0 | 0.00 | 0.00 | 0.00 | 62 | 1021.4 |
| 20260901153048 | 71 | 143 | 0.0 | 4.0 | 0.00 | 0.00 | 0.00 | 64 | 1021.3 |
| 20260901151553 | 70 | 46 | 0.0 | 3.0 | 0.00 | 0.00 | 0.00 | 65 | 1021.2 |
| 20260901150045 | 68 | 340 | 0.0 | 2.0 | 0.00 | 0.00 | 0.00 | 70 | 1021.2 |
| 20260901144540 | 68 | 300 | 0.0 | 2.0 | 0.00 | 0.00 | 0.00 | 71 | 1021.3 |
| 20260901143041 | 67 | 74 | 0.0 | 2.0 | 0.00 | 0.00 | 0.00 | 73 | 1021.3 |
| 20260901141542 | 65 | 25 | 0.0 | 3.0 | 0.00 | 0.00 | 0.00 | 71 | 1021.6 |
| 20260901140031 | 63 | 110 | 0.0 | 2.0 | 0.00 | 0.00 | 0.00 | 79 | 1021.6 |
| 20260901134527 | 61 | 54 | 0.0 | 3.0 | 0.00 | 0.00 | 0.00 | 84 | 1021.6 |
| 20260901133023 | 59 | 109 | 0.0 | 1.0 | 0.00 | 0.00 | 0.00 | 87 | 1021.6 |
| 20260901131522 | 58 | 147 | 0.0 | 1.0 | 0.00 | 0.00 | 0.00 | 91 | 1021.8 |
| 20260901130016 | 57 | 143 | 0.0 | 1.0 | 0.00 | 0.00 | 0.00 | 92 | 1021.8 |
| 20260901124513 | 56 | 143 | 0.0 | 0.0 | 0.00 | 0.00 | 0.00 | 94 | 1021.8 |
| 20260901123016 | 55 | 143 | 0.0 | 1.0 | 0.00 | 0.00 | 0.00 | 96 | 1021.7 |
| 20260901121506 | 54 | 143 | 0.0 | 0.0 | 0.00 | 0.00 | 0.00 | 97 | 1021.6 |